This is the latest recevied weather packets stored in our database for station/object KJ4EWA. If no packets are shown the sender has not sent any weather packets the latest 10 day(s).
| Time | Temp. | Humidity | Pressure | Rain* | Wind** | Luminosity | Snow |
|---|---|---|---|---|---|---|---|
| 1777813313 | 10° C | 99% | 1024 hPa | 0 mm | - | 34 W/m² | - |
| 1777813010 | 8.89° C | 99% | 1024.2 hPa | 0 mm | - | 31 W/m² | - |
| 1777812708 | 8.89° C | 99% | 1023.8 hPa | 0 mm | - | 31 W/m² | - |
| 1777812404 | 8.33° C | 99% | 1024.1 hPa | 0 mm | - | 29 W/m² | - |
| 1777812103 | 7.78° C | 99% | 1024.1 hPa | 0 mm | - | 28 W/m² | - |
| 1777811800 | 7.78° C | 99% | 1024.1 hPa | 0 mm | - | 28 W/m² | - |
| 1777811498 | 7.78° C | 99% | 1024.3 hPa | 0 mm | - | 27 W/m² | - |
| 1777811193 | 7.22° C | 99% | 1024.6 hPa | 0 mm | - | 26 W/m² | - |
| 1777810891 | 6.11° C | 99% | 1024.2 hPa | 0 mm | - | 24 W/m² | - |
| 1777810587 | 6.11° C | 99% | 1024.4 hPa | 0 mm | - | 23 W/m² | - |
| 1777810284 | 5.56° C | 99% | 1024.1 hPa | 0 mm | - | 22 W/m² | - |
| 1777809980 | 5.56° C | 99% | 1024 hPa | 0 mm | - | 21 W/m² | - |
| 1777809678 | 5.56° C | 99% | 1024.1 hPa | 0 mm | - | 21 W/m² | - |
| 1777809375 | 5.56° C | 99% | 1024.2 hPa | 0 mm | - | 18 W/m² | - |
| 1777809073 | 5° C | 99% | 1024 hPa | 0 mm | - | 16 W/m² | - |
| 1777808771 | 5° C | 99% | 1023.9 hPa | 0 mm | - | 16 W/m² | - |
| 1777808467 | 5° C | 99% | 1023.9 hPa | 0 mm | - | 13 W/m² | - |
| 1777808165 | 5° C | 99% | 1024 hPa | 0 mm | - | 12 W/m² | - |
| 1777807863 | 5° C | 99% | 1023.7 hPa | 0 mm | - | 10 W/m² | - |
| 1777807561 | 5° C | 99% | 1023.4 hPa | 0 mm | - | 9 W/m² | - |
| 1777807257 | 5° C | 99% | 1023.4 hPa | 0 mm | - | 5 W/m² | - |
| 1777806953 | 5° C | 99% | 1023.7 hPa | 0 mm | - | 4 W/m² | - |
| 1777806650 | 5° C | 99% | 1023.4 hPa | 0 mm | - | 1 W/m² | - |
| 1777806345 | 5° C | 99% | 1023.4 hPa | 0 mm | - | 1 W/m² | - |
| 1777806043 | 5° C | 99% | 1023.6 hPa | 0 mm | - | 0 W/m² | - |
* Rain latest hour (hover to see other rain measurements)
** Current wind speed in m/s (hover to see current wind gust speed)